GW5630 Weather Reports


time (UTC)temp
C
wind
direction
speed
KPH
gust
KPH
rain 1hr
cm
rain 24hr
cm
rain mn
cm
humidity
%
barometer
mb
20260504201513 21 243 4.8 11.3 0.00 0.00 0.00 36 1009.0
20260504201006 21 227 4.8 16.1 0.00 0.00 0.00 38 1009.2
20260504200502 21 263 8.0 16.1 0.00 0.00 0.00 38 1009.2
20260504200003 20 240 4.8 17.7 0.00 0.00 0.00 39 1009.3
20260504195502 20 258 8.0 17.7 0.00 0.00 0.00 37 1009.3
20260504195002 21 265 12.9 17.7 0.00 0.00 0.00 36 1009.3
20260504194507 21 232 4.8 14.5 0.00 0.00 0.00 37 1009.5
20260504194002 21 265 4.8 14.5 0.00 0.00 0.00 37 1009.3
20260504193503 20 242 4.8 19.3 0.00 0.00 0.00 40 1009.3
20260504193019 20 236 8.0 19.3 0.00 0.00 0.00 38 1009.4
20260504192503 20 236 6.4 16.1 0.00 0.00 0.00 39 1009.5
20260504192006 21 253 8.0 16.1 0.00 0.00 0.00 37 1009.6
20260504191520 21 231 4.8 19.3 0.00 0.00 0.00 41 1009.5
20260504191003 21 250 4.8 19.3 0.00 0.00 0.00 38 1009.6
20260504190507 20 245 8.0 17.7 0.00 0.00 0.00 38 1009.7
20260504190014 20 246 9.7 20.9 0.00 0.00 0.00 38 1009.7
20260504185503 20 234 11.3 22.5 0.00 0.00 0.00 38 1009.7
20260504185001 20 238 9.7 22.5 0.00 0.00 0.00 39 1009.9
20260504184506 20 238 6.4 14.5 0.00 0.00 0.00 39 1010.1
20260504184002 20 149 6.4 14.5 0.00 0.00 0.00 40 1010.0
20260504183503 19 233 6.4 17.7 0.00 0.00 0.00 41 1010.2
20260504183008 19 244 9.7 17.7 0.00 0.00 0.00 39 1010.2
20260504182503 18 208 8.0 16.1 0.00 0.00 0.00 40 1010.3
20260504182005 18 255 8.0 16.1 0.00 0.00 0.00 39 1010.3
20260504181525 18 245 6.4 17.7 0.00 0.00 0.00 38 1010.4
20260504181004 19 242 8.0 17.7 0.00 0.00 0.00 40 1010.5
20260504180507 19 258 8.0 16.1 0.00 0.00 0.00 38 1010.5
20260504180019 20 253 4.8 17.7 0.00 0.00 0.00 39 1010.6
20260504175503 20 219 6.4 17.7 0.00 0.00 0.00 38 1010.6
20260504175005 20 251 4.8 16.1 0.00 0.00 0.00 37 1010.5
20260504174520 20 264 8.0 16.1 0.00 0.00 0.00 38 1010.6
20260504174003 20 245 8.0 16.1 0.00 0.00 0.00 43 1010.6
20260504173508 20 310 9.7 22.5 0.00 0.00 0.00 39 1010.6
20260504173008 20 259 6.4 22.5 0.00 0.00 0.00 39 1010.6
20260504172501 20 265 12.9 22.5 0.00 0.00 0.00 38 1010.6
20260504172006 20 231 8.0 14.5 0.00 0.00 0.00 39 1010.7
20260504171512 20 246 9.7 22.5 0.00 0.00 0.00 40 1010.7
20260504171006 20 253 12.9 22.5 0.00 0.00 0.00 38 1010.7
20260504170505 19 229 4.8 19.3 0.00 0.00 0.00 41 1010.8
20260504151003 17 249 9.7 17.7 0.00 0.00 0.00 39 1012.3
20260504150504 17 247 4.8 14.5 0.00 0.00 0.00 40 1012.3
20260504141009 15 242 9.7 20.9 0.00 0.00 0.00 39 1012.3
20260504140507 15 219 11.3 17.7 0.00 0.00 0.00 42 1012.3
20260504130506 11 251 9.7 16.1 0.00 0.00 0.00 45 1012.8
20260504110508 9 251 6.4 12.9 0.00 0.00 0.00 49 1012.9
20260504100508 8 263 4.8 9.7 0.00 0.00 0.00 52 1012.9
20260504082003 8 248 3.2 9.7 0.00 0.00 0.00 51 1013.2
20260504081513 8 253 1.6 9.7 0.00 0.00 0.00 52 1013.3
20260504081005 8 282 1.6 9.7 0.00 0.00 0.00 52 1013.3
20260504080506 8 245 1.6 8.0 0.00 0.00 0.00 51 1013.3
20260504050508 10 257 6.4 14.5 0.00 0.00 0.00 47 1013.2
20260504045509 10 255 8.0 14.5 0.00 0.00 0.00 47 1013.3
20260504045010 10 214 8.0 14.5 0.00 0.00 0.00 48 1013.2
20260504044515 9 257 8.0 11.3 0.00 0.00 0.00 48 1013.3
20260504044010 9 249 6.4 11.3 0.00 0.00 0.00 48 1013.2
20260504043507 9 256 4.8 9.7 0.00 0.00 0.00 49 1013.2
20260504043021 9 259 4.8 9.7 0.00 0.00 0.00 50 1013.2
20260504042505 8 267 3.2 8.0 0.00 0.00 0.00 50 1013.2
20260504042005 8 246 3.2 6.4 0.00 0.00 0.00 51 1013.1
20260504041524 8 267 3.2 6.4 0.00 0.00 0.00 53 1013.1
20260504041006 8 254 3.2 6.4 0.00 0.00 0.00 52 1013.1
20260504040507 8 279 1.6 6.4 0.00 0.00 0.00 52 1013.1
20260504040027 8 281 0.0 3.2 0.00 0.00 0.00 54 1013.1
20260504035513 8 267 0.0 3.2 0.00 0.00 0.00 54 1013.1
20260504035008 8 275 0.0 3.2 0.00 0.00 0.00 53 1013.1
20260504034533 8 269 0.0 3.2 0.00 0.00 0.00 53 1013.0
20260504034008 8 269 0.0 3.2 0.00 0.00 0.00 52 1012.9
20260504033508 8 275 0.0 1.6 0.00 0.00 0.00 53 1012.8
20260504033041 8 288 0.0 0.0 0.00 0.00 0.00 53 1012.8
20260504032506 8 288 0.0 1.6 0.00 0.00 0.00 52 1012.9
20260504032006 8 288 0.0 1.6 0.00 0.00 0.00 53 1012.8
20260504031507 8 263 0.0 1.6 0.00 0.00 0.00 51 1012.8
20260504031005 8 263 0.0 1.6 0.00 0.00 0.00 50 1012.8
20260504030502 8 247 0.0 3.2 0.00 0.00 0.00 50 1012.8
20260504030007 9 286 0.0 4.8 0.00 0.00 0.00 50 1012.8
20260504025504 9 262 0.0 4.8 0.00 0.00 0.00 50 1012.7
20260504025005 9 301 0.0 4.8 0.00 0.00 0.00 51 1012.8
20260504024534 9 263 0.0 4.8 0.00 0.00 0.00 49 1012.7
20260504024007 10 232 1.6 4.8 0.00 0.00 0.00 48 1012.8
20260504023504 10 259 0.0 6.4 0.00 0.00 0.00 48 1012.8
20260504023017 10 265 0.0 6.4 0.00 0.00 0.00 47 1012.9
20260504022505 10 255 1.6 4.8 0.00 0.00 0.00 47 1012.8
20260504022012 10 246 1.6 4.8 0.00 0.00 0.00 47 1012.9
20260504021519 10 269 0.0 11.3 0.00 0.00 0.00 47 1012.8
20260504021007 10 269 1.6 11.3 0.00 0.00 0.00 46 1012.8
20260504020507 10 241 1.6 6.4 0.00 0.00 0.00 46 1012.8
20260504020004 10 263 4.8 6.4 0.00 0.00 0.00 45 1012.7
20260504015503 10 249 1.6 11.3 0.00 0.00 0.00 45 1012.7
20260504015003 10 252 4.8 12.9 0.00 0.00 0.00 45 1012.7
20260504014510 10 252 6.4 12.9 0.00 0.00 0.00 46 1012.7
20260504014007 10 223 1.6 9.7 0.00 0.00 0.00 46 1012.7
20260504013506 10 257 4.8 11.3 0.00 0.00 0.00 45 1012.6
20260504013017 10 247 4.8 11.3 0.00 0.00 0.00 44 1012.7
20260504012505 10 257 4.8 11.3 0.00 0.00 0.00 45 1012.6
20260504012007 10 250 4.8 9.7 0.00 0.00 0.00 44 1012.5
20260504011517 10 261 3.2 9.7 0.00 0.00 0.00 44 1012.4
20260504011006 10 246 4.8 9.7 0.00 0.00 0.00 44 1012.4
20260504010512 10 252 3.2 6.4 0.00 0.00 0.00 45 1012.4
20260504010020 10 254 3.2 6.4 0.00 0.00 0.00 45 1012.3
20260504005507 10 270 3.2 6.4 0.00 0.00 0.00 45 1012.3
20260504005007 10 267 1.6 6.4 0.00 0.00 0.00 46 1012.3
20260504004538 10 258 3.2 6.4 0.00 0.00 0.00 45 1012.2
20260504004003 10 254 0.0 6.4 0.00 0.00 0.00 45 1012.2
20260504003505 10 236 1.6 6.4 0.00 0.00 0.00 44 1012.2
20260504003011 10 246 1.6 6.4 0.00 0.00 0.00 44 1012.1
20260504002506 11 254 1.6 4.8 0.00 0.00 0.00 43 1012.1
20260504002005 11 273 1.6 4.8 0.00 0.00 0.00 44 1012.0
20260504001514 11 273 0.0 4.8 0.00 0.00 0.00 44 1012.1
20260504001010 11 271 1.6 8.0 0.00 0.00 0.00 42 1012.1
20260504000505 11 259 3.2 8.0 0.00 0.00 0.00 42 1012.0
20260504000021 11 238 1.6 6.4 0.00 0.00 0.00 42 1012.0
20260503235506 11 263 1.6 6.4 0.00 0.00 0.00 42 1012.0
20260503235010 11 247 3.2 6.4 0.00 0.00 0.00 42 1012.0
20260503234529 11 252 1.6 6.4 0.00 0.00 0.00 41 1012.0
20260503234007 11 262 0.0 6.4 0.00 0.00 0.00 42 1012.0
20260503233503 11 263 3.2 6.4 0.00 0.00 0.00 42 1012.0
20260503233007 11 263 0.0 6.4 0.00 0.00 0.00 42 1011.9
20260503232504 12 263 1.6 6.4 0.00 0.00 0.00 41 1011.8
20260503232004 12 259 1.6 4.8 0.00 0.00 0.00 41 1011.7
20260503231514 12 231 1.6 4.8 0.00 0.00 0.00 41 1011.7
20260503231007 12 275 0.0 3.2 0.00 0.00 0.00 40 1011.7
20260503230505 12 269 0.0 4.8 0.00 0.00 0.00 41 1011.7
20260503230018 12 258 1.6 4.8 0.00 0.00 0.00 39 1011.6
20260503225505 12 283 1.6 3.2 0.00 0.00 0.00 40 1011.7
20260503225008 12 352 1.6 4.8 0.00 0.00 0.00 41 1011.8
20260503224521 12 254 1.6 4.8 0.00 0.00 0.00 39 1011.7
20260503224008 12 273 1.6 4.8 0.00 0.00 0.00 39 1011.7
20260503223507 12 276 1.6 9.7 0.00 0.00 0.00 39 1011.7
20260503223025 12 284 0.0 9.7 0.00 0.00 0.00 39 1011.7
20260503222506 12 127 1.6 11.3 0.00 0.00 0.00 40 1011.7
20260503222004 12 231 3.2 11.3 0.00 0.00 0.00 39 1011.6
20260503221510 12 281 1.6 11.3 0.00 0.00 0.00 37 1011.6
20260503221004 13 263 3.2 6.4 0.00 0.00 0.00 36 1011.7
20260503220504 13 293 0.0 4.8 0.00 0.00 0.00 38 1011.7
20260503220016 13 257 1.6 4.8 0.00 0.00 0.00 38 1011.7
20260503215505 13 318 1.6 12.9 0.00 0.00 0.00 38 1011.6
20260503215005 13 265 3.2 12.9 0.00 0.00 0.00 37 1011.6
20260503214519 13 279 1.6 11.3 0.00 0.00 0.00 39 1011.6
20260503214011 13 255 4.8 9.7 0.00 0.00 0.00 37 1011.5
20260503213512 13 205 3.2 8.0 0.00 0.00 0.00 38 1011.4
20260503213028 13 110 3.2 8.0 0.00 0.00 0.00 37 1011.4
20260503212507 13 277 3.2 16.1 0.00 0.00 0.00 36 1011.3
20260503212010 13 242 3.2 16.1 0.00 0.00 0.00 38 1011.3
20260503211536 13 261 3.2 12.9 0.00 0.00 0.00 37 1011.1
20260503211010 13 273 1.6 12.9 0.00 0.00 0.00 36 1011.2
20260503210504 13 271 3.2 8.0 0.00 0.00 0.00 38 1011.3
20260503210012 13 292 3.2 8.0 0.00 0.00 0.00 35 1011.4
20260503205506 13 271 3.2 8.0 0.00 0.00 0.00 36 1011.4
20260503205004 13 227 1.6 6.4 0.00 0.00 0.00 37 1011.4
20260503204520 14 338 1.6 6.4 0.00 0.00 0.00 35 1011.4
20260503204009 14 223 3.2 11.3 0.00 0.00 0.00 34 1011.5
20260503203507 14 275 1.6 11.3 0.00 0.00 0.00 39 1011.5
20260503203024 14 241 4.8 9.7 0.00 0.00 0.00 35 1011.5
20260503202508 14 300 3.2 9.7 0.00 0.00 0.00 35 1011.5
20260503202012 14 270 3.2 12.9 0.00 0.00 0.00 36 1011.5